Regional Weather Roundup
Issued by NWS

Home | Current Version | Previous Version | Graphics & Text | Print | Product List | Glossary On
Versions: 1 2 3 4 5 6 7 8 9 10 11 12 13 14 15 16 17 18 19 20 21 22 23 24 25 26 27 28 29 30 31 32 33 34 35 36 37 38 39 40 41 42 43 44 45 46 47 48 49 50
000
ASUS45 KBOU 181710
RWRCO

WEATHER ROUNDUP FOR COLORADO
NATIONAL WEATHER SERVICE DENVER/BOULDER CO
1000 AM MST SUN FEB 18 2018

NOTE: "FAIR" INDICATES FEW OR NO CLOUDS BELOW 12000 FEET WITH NO
SIGNIFICANT WEATHER AND/OR OBSTRUCTIONS TO VISIBILITY.

COZ001>005-013-030-031-181800-
...NORTHWEST COLORADO...

CITY           SKY/WX    TMP DP  RH WIND       PRES   REMARKS
CRAIG          FAIR      44  18  35 SW30G41   29.63F
HAYDEN         PTSUNNY   42  18  37 SW17G24   29.64F
MEEKER         FAIR      45  18  34 SW29G38   29.64F
RANGELY        FAIR      51  18  26 SW17G33   29.63F
RABBIT EARS PA FAIR      30  14  51 SW12G23   29.70S WCI  21
STEAMBOAT SPGS FAIR      29  14  52 SW7       29.65F WCI  22
WALDEN         FAIR      37  14  38 SW17G29   29.63S
$$

COZ006>008-011-181800-
...WEST CENTRAL VALLEYS...

CITY           SKY/WX    TMP DP  RH WIND       PRES   REMARKS
GRAND JUNCTION FAIR      47  23  38 S3        29.73F
MONTROSE       FAIR      51  16  24 E12       29.80F
EAGLE          FAIR      45  17  32 SW28G40   29.70F
RIFLE          FAIR      32  22  66 E5        29.72F WCI  27
DELTA          FAIR      53  18  25 NE3       29.79F
NUCLA          FAIR      50  19  29 S17G23    29.88F
$$

COZ017>023-064>068-181800-
...SOUTHWEST COLORADO...

CITY           SKY/WX    TMP DP  RH WIND       PRES   REMARKS
DURANGO        FAIR      37  22  54 VRB6      29.96F
CORTEZ         FAIR      48  22  35 SW14      29.93F
PAGOSA SPRINGS FAIR      34  18  52 CALM      29.99S
TELLURIDE      FAIR      38  11  33 SE6       29.93F
WOLF CREEK PAS FAIR      18  18 100 S36G48    29.94F FOG     WCI  -3
$$

COZ009-010-012-014-032>034-037-058>063-181800-
...CENTRAL COLORADO...

CITY           SKY/WX    TMP DP  RH WIND       PRES   REMARKS
ASPEN          FAIR      40  14  34 N7        29.72F
BUENA VISTA    FAIR      47   0  14 W13G21    29.72F
COPPER MTN     LGT SNOW  30   3  31 SW21G38   29.78F WCI  17
BERTHOUD PASS  FAIR      23  12  63 W67G81    29.59F WCI  -1
COTTONWOOD PAS FAIR      43  -2  15 W18G45    29.72F
GUNNISON       FAIR      27  15  61 VRB5      29.86F WCI  22
GRANBY         FAIR      37  16  42 W20G28    29.70S
KREMMLING      FAIR      45  18  33 W16G24    29.69F
LEADVILLE      FAIR      35   3  26 W21G37    29.73F WCI  24
MONARCH PASS   TSTM      19   7  58 W52G63    29.90F WCI  -4
SALIDA         FAIR      46   5  18 S16G23    29.83F
SUNLIGHT       FAIR      25  18  74 SW16G33     N/A  WCI  12
WILKERSON PASS FAIR      32  -4  21 SW20G30   29.77R WCI  20
$$

COZ069>075-181800-
...SAN LUIS VALLEY/SANGRE DE CRISTO MOUNTAINS...

CITY           SKY/WX    TMP DP  RH WIND       PRES   REMARKS
ALAMOSA        FAIR      44  22  41 S25G31    29.83F
DEL NORTE      FAIR      43  16  33 SW25G32   29.83F
LA VETA PASS   FAIR      30  19  64 S29G53    29.88F WCI  15
SAGUACHE       FAIR      34  10  37 CALM      29.83F
$$

COZ035-036-038>040-181800-
...NORTHERN COLORADO FRONT RANGE...

CITY           SKY/WX    TMP DP  RH WIND       PRES   REMARKS
DENVER INTL AP PTSUNNY   58   9  14 SW17      29.51F
AURORA         PTSUNNY   56   4  12 SW16      29.52F
FRONT RANGE AP PTSUNNY   59  10  14 S13G25    29.54F
ERIE MUNI ARPT FAIR      62   1   9 W12G17    29.54F
BOULDER MUN AP FAIR      59   9  13 SW21G28   29.48F
CENTENNIAL     PTSUNNY   53   7  15 S13       29.53F
BROOMFIELD     NOT AVBL
FORT COLLINS   FAIR      61   8  12 W36G43    29.46F
LONGMONT       FAIR      64   7  10 CALM      29.50F
$$

COZ041-046-047-076>085-087-088-181800-
...PIKES PEAK/PALMER DIVIDE AND SOUTHERN FOOTHILLS...

CITY           SKY/WX    TMP DP  RH WIND       PRES   REMARKS
COLO. SPRINGS  FAIR      55   5  13 SE13G24   29.60F
A. F. ACADEMY  FAIR      57  -6   7 SW20G30   29.59F
SCHRIEVER AFB  NOT AVBL
CHEYENNE MTN   FAIR      52   2  13 SE3       29.55F
ELLICOTT         N/A    N/A N/A N/A SW25G35   29.61F
FALCON         FAIR      53   1  12 SE14      29.64F
FORT CARSON    FAIR      55   5  13 S17       29.59F
LIMON          FAIR      56   7  14 SW12G22   29.59F
MONUMENT HILL  FAIR      50   1  13 SW33G43   29.57F
CANON CITY     SUNNY     59  12  15 W20G29    29.63F
WALSENBURG     NOT AVBL
TRINIDAD       FAIR      55  12  18 SW22G32   29.69F
$$

COZ042>045-048>051-090-091-181800-
...NORTHEAST COLORADO...

CITY           SKY/WX    TMP DP  RH WIND       PRES   REMARKS
GREELEY ARPT   FAIR      58  18  21 SE9       29.48F
AKRON          FAIR      60  14  16 SW21G28   29.52F
BURLINGTON     FAIR      55  18  23 SW21      29.58F
WRAY           FAIR      55  18  22 W12G18    29.52S
YUMA           NOT AVBL
STERLING       FAIR      50  23  34 SE3       29.51S
HOLYOKE        FAIR      54  27  35 W9        29.52F
FORT MORGAN    FAIR      64   9  11 S13       29.51F
$$

COZ086-089-092>099-181800-
...SOUTHEAST COLORADO...

CITY           SKY/WX    TMP DP  RH WIND       PRES   REMARKS
PUEBLO         FAIR      59  17  19 W6        29.64F
LA JUNTA       FAIR      61  15  16 SW22G31   29.64F
LAMAR          FAIR      62  13  14 SW18      29.61F
SPRINGFIELD      N/A     58  17  20 SW25G33   29.67F
$$




USA.gov is the U.S. government's official web portal to all federal, state and local government web resources and services.